Time,TemperatureF,DewpointF,PressureIn,WindDirection,WindDirectionDegrees,WindSpeedMPH,WindSpeedGustMPH,Humidity,HourlyPrecipIn,Conditions,Clouds,dailyrainin,SolarRadiationWatts/m^2,SoftwareType,DateUTC
2013-02-28 00:01:00,33.0,33.0,-100.00,WSW,250,1.0,3.0,100,0.01,,,0.46,0.000000,,2013-02-28 08:01:00,
2013-02-28 00:32:00,33.0,33.0,-100.00,NE,55,1.0,4.0,100,0.00,,,0.46,0.000000,,2013-02-28 08:32:00,
2013-02-28 00:42:00,33.0,33.0,-100.00,NE,55,1.0,4.0,100,0.00,,,0.46,0.000000,,2013-02-28 08:42:00,
2013-02-28 00:53:00,33.0,33.0,-100.00,NE,55,1.0,4.0,100,0.00,,,0.46,0.000000,,2013-02-28 08:53:00,
2013-02-28 01:03:00,33.0,33.0,-100.00,NE,55,1.0,4.0,100,0.00,,,0.46,0.000000,,2013-02-28 09:03:00,
2013-02-28 01:32:00,33.0,33.0,-100.00,NE,40,1.0,4.0,100,0.02,,,0.48,0.000000,,2013-02-28 09:32:00,
2013-02-28 01:42:00,33.0,33.0,-100.00,NE,40,1.0,4.0,100,0.02,,,0.48,0.000000,,2013-02-28 09:42:00,
2013-02-28 01:52:00,33.0,33.0,-100.00,NE,40,1.0,4.0,100,0.02,,,0.48,0.000000,,2013-02-28 09:52:00,
2013-02-28 02:01:00,33.0,33.0,-100.00,NE,40,1.0,4.0,100,0.02,,,0.48,0.000000,,2013-02-28 10:01:00,
2013-02-28 02:32:00,33.0,33.0,-100.00,NNE,18,1.0,5.0,100,0.01,,,0.49,0.000000,,2013-02-28 10:32:00,
2013-02-28 02:42:00,33.0,33.0,-100.00,NNE,18,1.0,5.0,100,0.01,,,0.49,0.000000,,2013-02-28 10:42:00,
2013-02-28 02:52:00,33.0,33.0,-100.00,NNE,18,1.0,5.0,100,0.01,,,0.49,0.000000,,2013-02-28 10:52:00,
2013-02-28 03:01:00,33.0,33.0,-100.00,NNE,18,1.0,5.0,100,0.01,,,0.49,0.000000,,2013-02-28 11:01:00,
2013-02-28 03:32:00,32.0,32.0,-100.00,NNE,23,1.0,2.0,100,0.01,,,0.50,0.000000,,2013-02-28 11:32:00,
2013-02-28 03:42:00,32.0,32.0,-100.00,NNE,23,1.0,2.0,100,0.01,,,0.50,0.000000,,2013-02-28 11:42:00,
2013-02-28 03:52:00,32.0,32.0,-100.00,NNE,23,1.0,2.0,100,0.01,,,0.50,0.000000,,2013-02-28 11:52:00,
2013-02-28 04:01:00,32.0,32.0,-100.00,NNE,23,1.0,2.0,100,0.01,,,0.50,0.000000,,2013-02-28 12:01:00,
2013-02-28 04:32:00,32.0,32.0,-100.00,NNE,25,1.0,3.0,100,0.03,,,0.53,0.000000,,2013-02-28 12:32:00,
2013-02-28 04:42:00,32.0,32.0,-100.00,NNE,25,1.0,3.0,100,0.03,,,0.53,0.000000,,2013-02-28 12:42:00,
2013-02-28 04:52:00,32.0,32.0,-100.00,NNE,25,1.0,3.0,100,0.03,,,0.53,0.000000,,2013-02-28 12:52:00,
2013-02-28 05:01:00,32.0,32.0,-100.00,NNE,25,1.0,3.0,100,0.03,,,0.53,0.000000,,2013-02-28 13:01:00,
2013-02-28 05:32:00,34.0,34.0,-100.00,ENE,78,1.0,4.0,100,0.05,,,0.58,0.000000,,2013-02-28 13:32:00,
2013-02-28 05:42:00,34.0,34.0,-100.00,ENE,78,1.0,4.0,100,0.05,,,0.58,0.000000,,2013-02-28 13:42:00,
2013-02-28 05:52:00,34.0,34.0,-100.00,ENE,78,1.0,4.0,100,0.05,,,0.58,0.000000,,2013-02-28 13:52:00,
2013-02-28 06:01:00,34.0,34.0,-100.00,ENE,78,1.0,4.0,100,0.05,,,0.58,0.000000,,2013-02-28 14:01:00,
2013-02-28 06:32:00,34.0,34.0,-100.00,East,83,1.0,4.0,100,0.04,,,0.62,0.000000,,2013-02-28 14:32:00,
2013-02-28 06:42:00,34.0,34.0,-100.00,East,83,1.0,4.0,100,0.04,,,0.62,0.000000,,2013-02-28 14:42:00,
2013-02-28 06:52:00,34.0,34.0,-100.00,East,83,1.0,4.0,100,0.04,,,0.62,0.000000,,2013-02-28 14:52:00,
2013-02-28 07:02:00,34.0,34.0,-100.00,East,83,1.0,4.0,100,0.04,,,0.62,0.000000,,2013-02-28 15:02:00,
2013-02-28 07:32:00,34.0,34.0,-100.00,NW,308,1.0,4.0,100,0.02,,,0.64,0.000000,,2013-02-28 15:32:00,
2013-02-28 07:42:00,34.0,34.0,-100.00,NW,308,1.0,4.0,100,0.02,,,0.64,0.000000,,2013-02-28 15:42:00,
2013-02-28 07:52:00,34.0,34.0,-100.00,NW,308,1.0,4.0,100,0.02,,,0.64,0.000000,,2013-02-28 15:52:00,
2013-02-28 08:01:00,34.0,34.0,-100.00,NW,308,1.0,4.0,100,0.02,,,0.64,0.000000,,2013-02-28 16:01:00,
2013-02-28 08:32:00,33.0,33.0,-100.00,NNW,341,1.0,5.0,100,0.06,,,0.70,10.000000,,2013-02-28 16:32:00,
2013-02-28 08:42:00,33.0,33.0,-100.00,NNW,341,1.0,5.0,100,0.06,,,0.70,10.000000,,2013-02-28 16:42:00,
2013-02-28 08:52:00,33.0,33.0,-100.00,NNW,341,1.0,5.0,100,0.06,,,0.70,10.000000,,2013-02-28 16:52:00,
2013-02-28 09:01:00,33.0,33.0,-100.00,NNW,341,1.0,5.0,100,0.06,,,0.70,10.000000,,2013-02-28 17:01:00,
2013-02-28 09:32:00,35.0,35.0,-100.00,North,354,1.0,5.0,100,0.03,,,0.73,64.000000,,2013-02-28 17:32:00,
2013-02-28 09:42:00,35.0,35.0,-100.00,North,354,1.0,5.0,100,0.03,,,0.73,64.000000,,2013-02-28 17:42:00,
2013-02-28 09:52:00,35.0,35.0,-100.00,North,354,1.0,5.0,100,0.03,,,0.73,64.000000,,2013-02-28 17:52:00,
2013-02-28 10:01:00,35.0,35.0,-100.00,North,354,1.0,5.0,100,0.03,,,0.73,64.000000,,2013-02-28 18:01:00,
2013-02-28 10:32:00,38.0,38.0,-100.00,NNW,343,1.0,5.0,100,0.06,,,0.78,93.000000,,2013-02-28 18:32:00,
2013-02-28 10:42:00,38.0,38.0,-100.00,NNW,343,1.0,5.0,100,0.06,,,0.78,93.000000,,2013-02-28 18:42:00,
2013-02-28 10:52:00,38.0,38.0,-100.00,NNW,343,1.0,5.0,100,0.06,,,0.78,93.000000,,2013-02-28 18:52:00,
2013-02-28 11:01:00,38.0,38.0,-100.00,NNW,343,1.0,5.0,100,0.06,,,0.78,93.000000,,2013-02-28 19:01:00,
2013-02-28 11:32:00,38.0,38.0,-100.00,North,8,1.0,4.0,99,0.08,,,0.78,108.000000,,2013-02-28 19:32:00,
2013-02-28 11:42:00,38.0,38.0,-100.00,North,8,1.0,4.0,99,0.08,,,0.78,108.000000,,2013-02-28 19:42:00,
2013-02-28 11:52:00,38.0,38.0,-100.00,North,8,1.0,4.0,99,0.08,,,0.78,108.000000,,2013-02-28 19:52:00,
2013-02-28 12:01:00,38.0,38.0,-100.00,North,8,1.0,4.0,99,0.08,,,0.78,108.000000,,2013-02-28 20:01:00,
2013-02-28 12:32:00,41.0,40.0,-100.00,NE,43,1.0,5.0,95,0.05,,,0.70,178.000000,,2013-02-28 20:32:00,
2013-02-28 12:42:00,41.0,40.0,-100.00,NE,43,1.0,5.0,95,0.05,,,0.70,178.000000,,2013-02-28 20:42:00,
2013-02-28 12:52:00,41.0,40.0,-100.00,NE,43,1.0,5.0,95,0.05,,,0.70,178.000000,,2013-02-28 20:52:00,
2013-02-28 13:01:00,41.0,40.0,-100.00,NE,43,1.0,5.0,95,0.05,,,0.70,178.000000,,2013-02-28 21:01:00,
2013-02-28 13:32:00,42.0,40.0,-100.00,South,185,1.0,5.0,93,0.04,,,0.67,205.000000,,2013-02-28 21:32:00,
2013-02-28 13:42:00,42.0,40.0,-100.00,South,185,1.0,5.0,93,0.04,,,0.67,205.000000,,2013-02-28 21:42:00,
2013-02-28 13:52:00,42.0,40.0,-100.00,South,185,1.0,5.0,93,0.04,,,0.67,205.000000,,2013-02-28 21:52:00,
2013-02-28 14:01:00,42.0,40.0,-100.00,South,185,1.0,5.0,93,0.04,,,0.67,205.000000,,2013-02-28 22:01:00,
2013-02-28 14:32:00,46.0,44.0,-100.00,NW,315,1.0,5.0,91,0.02,,,0.64,204.000000,,2013-02-28 22:32:00,
2013-02-28 14:42:00,46.0,44.0,-100.00,NW,315,1.0,5.0,91,0.02,,,0.64,204.000000,,2013-02-28 22:42:00,
2013-02-28 14:52:00,46.0,44.0,-100.00,NW,315,1.0,5.0,91,0.02,,,0.64,204.000000,,2013-02-28 22:52:00,
2013-02-28 15:01:00,46.0,44.0,-100.00,NW,315,1.0,5.0,91,0.02,,,0.64,204.000000,,2013-02-28 23:01:00,
2013-02-28 15:32:00,44.0,43.0,-100.00,SE,128,2.0,6.0,96,0.02,,,0.62,154.000000,,2013-02-28 23:32:00,
2013-02-28 15:42:00,44.0,43.0,-100.00,SE,128,2.0,6.0,96,0.02,,,0.62,154.000000,,2013-02-28 23:42:00,
2013-02-28 15:52:00,44.0,43.0,-100.00,SE,128,2.0,6.0,96,0.02,,,0.62,154.000000,,2013-02-28 23:52:00,
2013-02-28 16:01:00,44.0,43.0,-100.00,SE,128,2.0,6.0,96,0.02,,,0.62,154.000000,,2013-03-01 00:01:00,
2013-02-28 16:32:00,41.0,41.0,-100.00,West,276,2.0,8.0,99,0.04,,,0.65,93.000000,,2013-03-01 00:32:00,
2013-02-28 16:42:00,41.0,41.0,-100.00,West,276,2.0,8.0,99,0.04,,,0.65,93.000000,,2013-03-01 00:42:00,
2013-02-28 16:52:00,41.0,41.0,-100.00,West,276,2.0,8.0,99,0.04,,,0.65,93.000000,,2013-03-01 00:52:00,
2013-02-28 17:01:00,41.0,41.0,-100.00,West,276,2.0,8.0,99,0.04,,,0.65,93.000000,,2013-03-01 01:01:00,
2013-02-28 17:32:00,40.0,40.0,-100.00,ESE,115,1.0,6.0,100,0.04,,,0.67,35.000000,,2013-03-01 01:32:00,
2013-02-28 17:42:00,40.0,40.0,-100.00,ESE,115,1.0,6.0,100,0.04,,,0.67,35.000000,,2013-03-01 01:42:00,
2013-02-28 17:52:00,40.0,40.0,-100.00,ESE,115,1.0,6.0,100,0.04,,,0.67,35.000000,,2013-03-01 01:52:00,
2013-02-28 18:01:00,40.0,40.0,-100.00,ESE,115,1.0,6.0,100,0.04,,,0.67,35.000000,,2013-03-01 02:01:00,
2013-02-28 18:32:00,37.0,37.0,-100.00,SSW,200,1.0,4.0,100,0.00,,,0.66,5.000000,,2013-03-01 02:32:00,
2013-02-28 18:42:00,37.0,37.0,-100.00,SSW,200,1.0,4.0,100,0.00,,,0.66,5.000000,,2013-03-01 02:42:00,
2013-02-28 18:52:00,37.0,37.0,-100.00,SSW,200,1.0,4.0,100,0.00,,,0.66,5.000000,,2013-03-01 02:52:00,
2013-02-28 19:01:00,37.0,37.0,-100.00,SSW,200,1.0,4.0,100,0.00,,,0.66,5.000000,,2013-03-01 03:01:00,
2013-02-28 19:32:00,35.0,35.0,-100.00,WNW,295,1.0,3.0,100,0.01,,,0.67,0.000000,,2013-03-01 03:32:00,
2013-02-28 19:42:00,35.0,35.0,-100.00,WNW,295,1.0,3.0,100,0.01,,,0.67,0.000000,,2013-03-01 03:42:00,
2013-02-28 19:52:00,35.0,35.0,-100.00,WNW,295,1.0,3.0,100,0.01,,,0.67,0.000000,,2013-03-01 03:52:00,
2013-02-28 20:01:00,35.0,35.0,-100.00,WNW,295,1.0,3.0,100,0.01,,,0.67,0.000000,,2013-03-01 04:01:00,
2013-02-28 20:42:00,35.0,35.0,-100.00,SSW,192,0.0,4.0,100,0.01,,,0.66,0.000000,,2013-03-01 04:42:00,
2013-02-28 20:52:00,35.0,35.0,-100.00,SSW,192,0.0,4.0,100,0.01,,,0.66,0.000000,,2013-03-01 04:52:00,
2013-02-28 21:01:00,35.0,35.0,-100.00,SSW,192,0.0,4.0,100,0.01,,,0.66,0.000000,,2013-03-01 05:01:00,
2013-02-28 21:33:00,36.0,36.0,-100.00,North,353,0.0,2.0,100,0.01,,,0.67,0.000000,,2013-03-01 05:33:00,
2013-02-28 21:42:00,36.0,36.0,-100.00,North,353,0.0,2.0,100,0.01,,,0.67,0.000000,,2013-03-01 05:42:00,
2013-02-28 21:52:00,36.0,36.0,-100.00,North,353,0.0,2.0,100,0.01,,,0.67,0.000000,,2013-03-01 05:52:00,
2013-02-28 22:01:00,36.0,36.0,-100.00,North,353,0.0,2.0,100,0.01,,,0.67,0.000000,,2013-03-01 06:01:00,
2013-02-28 22:32:00,34.0,34.0,-100.00,East,81,1.0,2.0,100,0.01,,,0.67,0.000000,,2013-03-01 06:32:00,
2013-02-28 22:42:00,34.0,34.0,-100.00,East,81,1.0,2.0,100,0.01,,,0.67,0.000000,,2013-03-01 06:42:00,
2013-02-28 22:52:00,34.0,34.0,-100.00,East,81,1.0,2.0,100,0.01,,,0.67,0.000000,,2013-03-01 06:52:00,
2013-02-28 23:01:00,34.0,34.0,-100.00,East,81,1.0,2.0,100,0.01,,,0.67,0.000000,,2013-03-01 07:01:00,
2013-02-28 23:32:00,36.0,36.0,-100.00,ENE,73,1.0,2.0,100,0.01,,,0.67,0.000000,,2013-03-01 07:32:00,
2013-02-28 23:42:00,36.0,36.0,-100.00,ENE,73,1.0,2.0,100,0.01,,,0.67,0.000000,,2013-03-01 07:42:00,
2013-02-28 23:52:00,36.0,36.0,-100.00,ENE,73,1.0,2.0,100,0.01,,,0.67,0.000000,,2013-03-01 07:52:00,